Flood From: 21-02-2018 18:00 Until: 22-02-2018 16:00 warning for: Flood Level: Yellow info button

Although rather usual in this region, locally or potentially dangerous phenomena are expected. (such as local winds, summer thunderstorms, rising streams or high waves) Be aware and pay attention to the latest weather updates, especially if you carry out activities exposed to weather or close to a stream or shoreline. 


Meteo18 Weather Cam more information Meteo18 Weather Cam


Thunder radar more information blitzortung!


Rain radar more information rain snow radar


Visit our other weather sites:

Template documentation
and downloads

And another site



Weather Underground History page Text

Daily Summary for January 30, 2016 Units:  Metric    English   Both
« Previous Day
Next Day »
Daily Weekly Monthly Yearly Custom
  High: Low: Average:
Temperature: -17.8 °C -14.8 °C -13.7 °C
Dew Point: -17.8 °C -15.8 °C -14.6 °C
Humidity: Humidity % 84 % 90 %
Wind Speed: 0 km/h 0 km/h 10 km/h
Wind Gust: 0 km/h - -
Wind:- - SW
Pressure: 0 hPa 34428.8 hPa -
Precipitation: 464.82 mm    
Historical Graphs
 
 
Tabular Data for January 30, 2016
Time Temperature Dew Point Pressure Wind Wind Speed Wind Gust Humidity Rainfall Rate (Hourly)
-17.8 °C -17.8 °C 0 hPa Calm     Humidity % 0 mm
00:02 -14.3 °C -15.3 °C 34852.1 hPa South 2.6 km/h 12.9 km/h 88 % 0 mm
00:07 -14.3 °C -15.3 °C 34852.1 hPa WSW 5.1 km/h 12.9 km/h 88 % 0 mm
00:12 -14.3 °C -15.3 °C 34852.1 hPa WSW 7.7 km/h 12.9 km/h 88 % 0 mm
00:17 -14.3 °C -15.3 °C 34852.1 hPa WSW 2.6 km/h 10.3 km/h 88 % 0 mm
00:22 -14.3 °C -15.3 °C 34852.1 hPa SW 2.6 km/h 10.3 km/h 88 % 0 mm
00:27 -14.3 °C -15.3 °C 34852.1 hPa Calm   10.3 km/h 88 % 0 mm
00:32 -14.3 °C -15.3 °C 34852.1 hPa WSW 7.7 km/h 10.3 km/h 88 % 0 mm
00:37 -14.4 °C -15.4 °C 34841.9 hPa WSW 5.1 km/h 10.3 km/h 88 % 0 mm
00:42 -14.4 °C -15.4 °C 34841.9 hPa SW 5.1 km/h 12.9 km/h 88 % 0 mm
00:57 -14.4 °C -15.4 °C 34841.9 hPa SW 5.1 km/h 12.9 km/h 88 % 0 mm
01:02 -14.4 °C -15.4 °C 34841.9 hPa WSW 5.1 km/h 12.9 km/h 88 % 0 mm
01:07 -14.4 °C -15.4 °C 34831.8 hPa WSW 5.1 km/h 10.3 km/h 88 % 0 mm
01:12 -14.4 °C -15.4 °C 34831.8 hPa SW 5.1 km/h 10.3 km/h 88 % 0 mm
01:17 -14.4 °C -15.4 °C 34831.8 hPa SSW 2.6 km/h 10.3 km/h 88 % 0 mm
01:22 -14.4 °C -15.4 °C 34831.8 hPa West 2.6 km/h 10.3 km/h 88 % 0 mm
01:27 -14.4 °C -15.4 °C 34831.8 hPa SW 5.1 km/h 12.9 km/h 88 % 0 mm
01:32 -14.4 °C -15.4 °C 34831.8 hPa Calm   12.9 km/h 88 % 0 mm
01:37 -14.5 °C -15.5 °C 34818.2 hPa SW 7.7 km/h 12.9 km/h 88 % 0 mm
01:42 -14.4 °C -15.4 °C 34818.2 hPa SW 7.7 km/h 12.9 km/h 88 % 0 mm
01:47 -14.4 °C -15.4 °C 34818.2 hPa SW 5.1 km/h 12.9 km/h 88 % 0 mm
01:52 -14.4 °C -15.4 °C 34808.1 hPa SW 5.1 km/h 12.9 km/h 88 % 0 mm
01:57 -14.3 °C -15.3 °C 34808.1 hPa WSW 5.1 km/h 12.9 km/h 88 % 0 mm
02:02 -14.4 °C -15.4 °C 34797.9 hPa West 5.1 km/h 12.9 km/h 88 % 0 mm
02:07 -14.5 °C -15.5 °C 34808.1 hPa WSW 10.3 km/h 15.6 km/h 88 % 0 mm
02:12 -14.5 °C -15.5 °C 34797.9 hPa SW 12.9 km/h 15.6 km/h 88 % 0 mm
02:17 -14.4 °C -15.4 °C 34797.9 hPa SSW 7.7 km/h 15.6 km/h 88 % 0 mm
02:22 -14.4 °C -15.5 °C 34797.9 hPa ESE 7.7 km/h 15.6 km/h 87 % 0 mm
02:32 -14.4 °C -15.5 °C 34797.9 hPa SW 10.3 km/h 23.3 km/h 87 % 0 mm
02:37 -14.4 °C -15.6 °C 34797.9 hPa SW 7.7 km/h 20.8 km/h 87 % 0 mm
02:42 -14.4 °C -15.6 °C 34797.9 hPa SW 15.6 km/h 20.8 km/h 87 % 0 mm
02:47 -14.4 °C -15.6 °C 34797.9 hPa WSW 15.6 km/h 20.8 km/h 87 % 0 mm
02:52 -14.4 °C -15.6 °C 34797.9 hPa WSW 15.6 km/h 23.3 km/h 87 % 0 mm
02:57 -14.4 °C -15.6 °C 34797.9 hPa SW 10.3 km/h 23.3 km/h 87 % 0 mm
03:02 -14.4 °C -15.6 °C 34784.4 hPa SW 7.7 km/h 28.5 km/h 87 % 0 mm
03:12 -14.4 °C -15.6 °C 34784.4 hPa WSW 10.3 km/h 28.5 km/h 87 % 0 mm
03:17 -14.4 °C -15.6 °C 34784.4 hPa WSW 10.3 km/h 23.3 km/h 87 % 0 mm
03:22 -14.4 °C -15.6 °C 34784.4 hPa WSW 15.6 km/h 23.3 km/h 87 % 0 mm
03:27 -14.4 °C -15.6 °C 34784.4 hPa SW 10.3 km/h 23.3 km/h 87 % 0 mm
03:32 -14.4 °C -15.6 °C 34774.2 hPa SW 12.9 km/h 23.3 km/h 87 % 0 mm
03:42 -14.5 °C -15.6 °C 34774.2 hPa SSW 12.9 km/h 25.9 km/h 87 % 0 mm
03:47 -14.6 °C -15.6 °C 34774.2 hPa WSW 7.7 km/h 25.9 km/h 88 % 0 mm
03:57 -14.7 °C -15.7 °C 34760.7 hPa WSW 7.7 km/h 18.2 km/h 88 % 0 mm
04:02 -14.7 °C -15.7 °C 34760.7 hPa WSW 7.7 km/h 18.2 km/h 88 % 0 mm
04:12 -14.8 °C -15.8 °C 34760.7 hPa WSW 7.7 km/h 18.2 km/h 88 % 0 mm
04:17 -14.7 °C -15.7 °C 34760.7 hPa WSW 12.9 km/h 15.6 km/h 88 % 0 mm
04:22 -14.7 °C -15.7 °C 34760.7 hPa SW 5.1 km/h 15.6 km/h 88 % 0 mm
04:32 -14.7 °C -15.7 °C 34750.5 hPa WSW 10.3 km/h 18.2 km/h 88 % 0 mm
04:42 -14.7 °C -15.7 °C 34750.5 hPa WSW 10.3 km/h 25.9 km/h 88 % 0 mm
04:47 -14.7 °C -15.7 °C 34750.5 hPa SW 5.1 km/h 23.3 km/h 88 % 0 mm
04:52 -14.7 °C -15.7 °C 34740.4 hPa WNW 7.7 km/h 15.6 km/h 88 % 0 mm
04:57 -14.7 °C -15.7 °C 34750.5 hPa SW 12.9 km/h 15.6 km/h 88 % 0 mm
05:02 -14.7 °C -15.7 °C 34740.4 hPa SW 15.6 km/h 18.2 km/h 88 % 0 mm
05:07 -14.7 °C -15.7 °C 34740.4 hPa WSW 5.1 km/h 18.2 km/h 88 % 0 mm
05:12 -14.7 °C -15.7 °C 34740.4 hPa WSW 5.1 km/h 15.6 km/h 88 % 0 mm
05:17 -14.7 °C -15.7 °C 34740.4 hPa WSW 5.1 km/h 15.6 km/h 88 % 0 mm
05:27 -14.7 °C -15.7 °C 34740.4 hPa SW 2.6 km/h 15.6 km/h 88 % 0 mm
05:37 -14.7 °C -15.7 °C 34740.4 hPa WSW 5.1 km/h 20.8 km/h 88 % 0 mm
05:42 -14.7 °C -15.7 °C 34726.8 hPa SW 5.1 km/h 20.8 km/h 88 % 0 mm
05:52 -14.7 °C -15.7 °C 34726.8 hPa West 7.7 km/h 20.8 km/h 88 % 0 mm
05:57 -14.7 °C -15.7 °C 34726.8 hPa SW 5.1 km/h 20.8 km/h 88 % 0 mm
06:02 -14.7 °C -15.7 °C 34716.7 hPa SW 10.3 km/h 23.3 km/h 88 % 0 mm
06:07 -14.7 °C -15.7 °C 34716.7 hPa WSW 2.6 km/h 23.3 km/h 88 % 0 mm
06:17 -14.7 °C -15.7 °C 34716.7 hPa West 5.1 km/h 18.2 km/h 88 % 0 mm
06:27 -14.7 °C -15.7 °C 34703.1 hPa SW 7.7 km/h 18.2 km/h 88 % 0 mm
06:32 -14.7 °C -15.7 °C 34703.1 hPa WSW 7.7 km/h 18.2 km/h 88 % 0 mm
06:37 -14.8 °C -15.8 °C 34703.1 hPa WSW 10.3 km/h 18.2 km/h 88 % 0 mm
06:47 -14.8 °C -15.7 °C 34703.1 hPa SSW 7.7 km/h 18.2 km/h 89 % 0 mm
06:52 -14.8 °C -15.7 °C 34703.1 hPa South 7.7 km/h 15.6 km/h 89 % 0 mm
07:02 -14.8 °C -15.7 °C 34703.1 hPa WSW 2.6 km/h 15.6 km/h 89 % 0 mm
07:07 -14.8 °C -15.7 °C 34703.1 hPa WSW 7.7 km/h 12.9 km/h 89 % 0 mm
07:17 -14.7 °C -15.7 °C 34703.1 hPa SW 10.3 km/h 15.6 km/h 89 % 0 mm
07:22 -14.7 °C -15.7 °C 34693 hPa SW 7.7 km/h 15.6 km/h 89 % 0 mm
07:27 -14.7 °C -15.7 °C 34693 hPa WSW 2.6 km/h 15.6 km/h 89 % 0 mm
07:32 -14.7 °C -15.7 °C 34693 hPa SW 7.7 km/h 15.6 km/h 89 % 0 mm
07:42 -14.7 °C -15.6 °C 34682.8 hPa WSW 5.1 km/h 12.9 km/h 89 % 0 mm
07:52 -14.7 °C -15.6 °C 34682.8 hPa WSW 2.6 km/h 12.9 km/h 89 % 0 mm
07:57 -14.7 °C -15.6 °C 34682.8 hPa SW 7.7 km/h 12.9 km/h 89 % 0 mm
08:02 -14.7 °C -15.6 °C 34682.8 hPa SSW 10.3 km/h 12.9 km/h 89 % 0 mm
08:12 -14.7 °C -15.6 °C 34682.8 hPa South 12.9 km/h 12.9 km/h 89 % 0 mm
08:17 -14.7 °C -15.6 °C 34682.8 hPa Calm   15.6 km/h 89 % 0 mm
08:22 -14.6 °C -15.6 °C 34682.8 hPa SSW 10.3 km/h 15.6 km/h 89 % 0 mm
08:32 -14.6 °C -15.5 °C 34669.3 hPa SW 10.3 km/h 15.6 km/h 89 % 0 mm
08:37 -14.5 °C -15.5 °C 34669.3 hPa WSW 5.1 km/h 18.2 km/h 88 % 0 mm
08:42 -14.5 °C -15.5 °C 34669.3 hPa SW 2.6 km/h 18.2 km/h 88 % 0 mm
08:52 -14.5 °C -15.5 °C 34659.1 hPa WSW 2.6 km/h 15.6 km/h 88 % 0 mm
09:02 -14.5 °C -15.5 °C 34669.3 hPa SW 5.1 km/h 15.6 km/h 88 % 0 mm
09:12 -14.4 °C -15.3 °C 34659.1 hPa WSW 5.1 km/h 12.9 km/h 89 % 0 mm
09:17 -14.3 °C -15.3 °C 34659.1 hPa WSW 5.1 km/h 15.6 km/h 89 % 0 mm
09:22 -14.3 °C -15.3 °C 34659.1 hPa West 5.1 km/h 15.6 km/h 88 % 0 mm
09:32 -14.1 °C -15.2 °C 34645.6 hPa West 12.9 km/h 18.2 km/h 87 % 0 mm
09:37 -14.1 °C -15.2 °C 34645.6 hPa SW 15.6 km/h 18.2 km/h 87 % 0 mm
09:42 -14.1 °C -15.2 °C 34659.1 hPa SSE 12.9 km/h 18.2 km/h 87 % 0 mm
09:52 -14 °C -15.2 °C 34659.1 hPa West 7.7 km/h 20.8 km/h 86 % 0 mm
09:57 -14 °C -15.1 °C 34659.1 hPa South 12.9 km/h 25.9 km/h 87 % 0 mm
10:07 -13.9 °C -15.1 °C 34645.6 hPa WSW 10.3 km/h 18.2 km/h 87 % 0 mm
10:12 -13.9 °C -15.1 °C 34645.6 hPa WSW 10.3 km/h 18.2 km/h 86 % 0 mm
10:17 -13.8 °C -15.1 °C 34645.6 hPa SW 18.2 km/h 18.2 km/h 86 % 0 mm
10:24 -13.8 °C -15 °C 34645.6 hPa South 12.9 km/h 20.8 km/h 86 % 0 mm
10:32 -13.8 °C -15 °C 34625.2 hPa SSW 12.9 km/h 23.3 km/h 86 % 0 mm
10:37 -13.7 °C -14.9 °C 34625.2 hPa SSW 7.7 km/h 23.3 km/h 86 % 0 mm
10:42 -13.7 °C -14.9 °C 34611.7 hPa WSW 12.9 km/h 25.9 km/h 86 % 0 mm
10:52 -13.7 °C -15 °C 34611.7 hPa SW 12.9 km/h 25.9 km/h 85 % 0 mm
11:02 -13.7 °C -15 °C 34625.2 hPa SW 15.6 km/h 25.9 km/h 85 % 0 mm
11:12 -13.6 °C -14.8 °C 34611.7 hPa SW 7.7 km/h 28.5 km/h 86 % 0 mm
11:22 -13.5 °C -14.9 °C 34625.2 hPa SW 15.6 km/h 28.5 km/h 84 % 0 mm
11:32 -13.6 °C -14.8 °C 34625.2 hPa SW 12.9 km/h 33.6 km/h 86 % 0 mm
11:39 -13.6 °C -14.7 °C 34635.4 hPa SW 20.8 km/h 33.6 km/h 87 % 0 mm
11:47 -13.6 °C -14.7 °C 34611.7 hPa SW 18.2 km/h 33.6 km/h 87 % 0 mm
11:57 -13.5 °C -14.7 °C 34611.7 hPa South 15.6 km/h 33.6 km/h 86 % 0 mm
12:02 -13.4 °C -14.7 °C 34611.7 hPa WSW 23.3 km/h 28.5 km/h 86 % 0 mm
12:07 -13.4 °C -14.7 °C 34601.5 hPa WSW 15.6 km/h 44.1 km/h 85 % 0 mm
12:12 -13.3 °C -14.7 °C 34601.5 hPa South 15.6 km/h 44.1 km/h 84 % 0 mm
12:19 -13.2 °C -14.6 °C 34591.4 hPa SE 15.6 km/h 44.1 km/h 85 % 0 mm
12:27 -13.3 °C -14.4 °C 34591.4 hPa SW 18.2 km/h 38.8 km/h 87 % 0 mm
12:42 -13.2 °C -14.4 °C 34567.7 hPa WSW 7.7 km/h 41.4 km/h 86 % 0 mm
12:47 -13.2 °C -14.4 °C 34567.7 hPa WSW 15.6 km/h 41.4 km/h 86 % 0 mm
12:57 -13.2 °C -14.4 °C 34554.1 hPa WSW 18.2 km/h 33.6 km/h 86 % 0 mm
13:17 -13.1 °C -14.3 °C 34544 hPa WSW 25.9 km/h 46.7 km/h 86 % 0 mm
13:27 -13.1 °C -14.3 °C 34533.8 hPa SW 20.8 km/h 36.2 km/h 86 % 0 mm
13:32 -13.1 °C -14.2 °C 34533.8 hPa SW 23.3 km/h 36.2 km/h 87 % 0 mm
13:37 -13.1 °C -14.2 °C 34533.8 hPa West 15.6 km/h 38.8 km/h 87 % 0 mm
13:42 -13.2 °C -14.2 °C 34533.8 hPa WSW 25.9 km/h 38.8 km/h 88 % 0 mm
13:47 -13.2 °C -14.2 °C 34520.3 hPa SW 7.7 km/h 49.2 km/h 89 % 0 mm
13:57 -13.4 °C -14.2 °C 34510.1 hPa SW 25.9 km/h 49.2 km/h 91 % 7.62 mm
14:02 -13.4 °C -14.2 °C 34510.1 hPa WSW 23.3 km/h 41.4 km/h 91 % 7.62 mm
14:07 -13.4 °C -14.2 °C 34510.1 hPa WSW 7.7 km/h 44.1 km/h 91 % 12.7 mm
14:27 -13.4 °C -14 °C 34496.6 hPa SW 20.8 km/h 44.1 km/h 93 % 25.4 mm
14:32 -13.4 °C -14 °C 34486.4 hPa SW 15.6 km/h 44.1 km/h 93 % 25.4 mm
14:37 -13.3 °C -13.9 °C 34486.4 hPa WSW 31.1 km/h 38.8 km/h 93 % 33.02 mm
14:42 -13.3 °C -13.9 °C 34476.3 hPa WSW 12.9 km/h 38.8 km/h 93 % 33.02 mm
14:47 -13.2 °C -13.8 °C 34476.3 hPa WSW 25.9 km/h 41.4 km/h 93 % 33.02 mm
14:57 -13.2 °C -13.8 °C 34462.7 hPa SSW 7.7 km/h 36.2 km/h 93 % 33.02 mm
15:07 -13.2 °C -13.8 °C 34462.7 hPa SE 18.2 km/h 36.2 km/h 93 % 25.4 mm
15:12 -13.2 °C -13.8 °C 34452.6 hPa SW 15.6 km/h 36.2 km/h 93 % 25.4 mm
15:17 -13.2 °C -13.7 °C 34452.6 hPa SW 25.9 km/h 38.8 km/h 94 % 20.32 mm
15:27 -13.2 °C -13.7 °C 34442.4 hPa WSW 23.3 km/h 41.4 km/h 94 % 12.7 mm
15:32 -13.1 °C -13.6 °C 34442.4 hPa SW 23.3 km/h 41.4 km/h 94 % 12.7 mm
15:37 -13.1 °C -13.6 °C 34442.4 hPa WSW 10.3 km/h 41.4 km/h 94 % 12.7 mm
15:59 -12.9 °C -13.4 °C 34442.4 hPa WSW 10.3 km/h 46.7 km/h 94 % 12.7 mm
16:07 -12.9 °C -13.4 °C 34428.8 hPa WSW 36.2 km/h 46.7 km/h 94 % 12.7 mm
16:12 -12.9 °C -13.4 °C 34428.8 hPa SSW 12.9 km/h 46.7 km/h 94 % 12.7 mm
16:22 -12.8 °C -13.3 °C 34428.8 hPa SW 18.2 km/h 38.8 km/h 94 % 12.7 mm
16:34 -12.8 °C -13.3 °C 34428.8 hPa SW 20.8 km/h 51.8 km/h 94 % 12.7 mm
16:42 -12.8 °C -13.3 °C 34428.8 hPa SW 18.2 km/h 51.8 km/h 95 % 20.32 mm
16:52 -12.8 °C -13.2 °C 34428.8 hPa WSW 33.6 km/h 44.1 km/h 95 % 25.4 mm
17:02 -12.7 °C -13.2 °C 34442.4 hPa SSW 31.1 km/h 44.1 km/h 95 % 20.32 mm
17:07 -12.7 °C -13.2 °C 34442.4 hPa WSW 28.5 km/h 44.1 km/h 95 % 25.4 mm
17:17 -12.7 °C -13.1 °C 34442.4 hPa SW 28.5 km/h 44.1 km/h 95 % 38.1 mm
17:22 -12.7 °C -13.1 °C 34442.4 hPa WNW 10.3 km/h 51.8 km/h 95 % 38.1 mm
17:29 -12.7 °C -13 °C 34452.6 hPa WSW 10.3 km/h 51.8 km/h 96 % 38.1 mm
17:37 -12.6 °C -12.9 °C 34462.7 hPa SW 12.9 km/h 44.1 km/h 96 % 45.72 mm
17:44 -12.6 °C -12.9 °C 34462.7 hPa SW 7.7 km/h 41.4 km/h 96 % 45.72 mm
17:52 -12.6 °C -12.9 °C 34462.7 hPa SW 10.3 km/h 41.4 km/h 96 % 76.2 mm
17:57 -12.6 °C -12.9 °C 34462.7 hPa SSW 10.3 km/h 28.5 km/h 96 % 91.44 mm
18:09 -12.6 °C -12.9 °C 34462.7 hPa WSW 5.1 km/h 20.8 km/h 96 % 104.14 mm
18:17 -12.6 °C -12.9 °C 34462.7 hPa SW 7.7 km/h 20.8 km/h 96 % 104.14 mm
18:22 -12.6 °C -12.9 °C 34462.7 hPa SW 12.9 km/h 20.8 km/h 96 % 104.14 mm
18:32 -12.6 °C -12.9 °C 34462.7 hPa SW 5.1 km/h 31.1 km/h 96 % 116.84 mm
18:42 -12.5 °C -12.8 °C 34462.7 hPa WSW 18.2 km/h 28.5 km/h 96 % 116.84 mm
18:52 -12.4 °C -12.8 °C 34462.7 hPa SW 10.3 km/h 31.1 km/h 96 % 91.44 mm
18:57 -12.4 °C -12.8 °C 34476.3 hPa SW 5.1 km/h 25.9 km/h 96 % 76.2 mm
19:02 -12.4 °C -12.8 °C 34476.3 hPa SW 10.3 km/h 25.9 km/h 96 % 76.2 mm
19:12 -12.4 °C -12.8 °C 34476.3 hPa WSW 12.9 km/h 28.5 km/h 96 % 76.2 mm
19:22 -12.4 °C -12.8 °C 34476.3 hPa SW 12.9 km/h 36.2 km/h 96 % 76.2 mm
19:27 -12.4 °C -12.8 °C 34486.4 hPa SSW 5.1 km/h 23.3 km/h 96 % 71.12 mm
19:32 -12.5 °C -12.8 °C 34486.4 hPa West 2.6 km/h 23.3 km/h 96 % 71.12 mm
19:37 -12.6 °C -12.9 °C 34486.4 hPa South 2.6 km/h 23.3 km/h 96 % 71.12 mm
19:47 -12.6 °C -12.9 °C 34486.4 hPa SE 5.1 km/h 23.3 km/h 96 % 83.82 mm
19:52 -12.6 °C -12.9 °C 34486.4 hPa WSW 7.7 km/h 23.3 km/h 96 % 83.82 mm
19:57 -12.6 °C -12.9 °C 34486.4 hPa South 10.3 km/h 23.3 km/h 96 % 76.2 mm
20:02 -12.6 °C -12.9 °C 34486.4 hPa SW 10.3 km/h 23.3 km/h 96 % 76.2 mm
20:07 -12.6 °C -12.9 °C 34486.4 hPa WSW 12.9 km/h 28.5 km/h 96 % 71.12 mm
20:12 -12.6 °C -12.9 °C 34496.6 hPa South 2.6 km/h 28.5 km/h 96 % 71.12 mm
20:17 -12.6 °C -12.9 °C 34496.6 hPa NNW 5.1 km/h 28.5 km/h 96 % 58.42 mm
20:22 -12.6 °C -12.9 °C 34496.6 hPa West 2.6 km/h 25.9 km/h 96 % 58.42 mm
20:27 -12.6 °C -13.1 °C 34496.6 hPa Calm   23.3 km/h 95 % 58.42 mm
20:37 -12.6 °C -13.1 °C 34496.6 hPa WSW 10.3 km/h 23.3 km/h 95 % 45.72 mm
20:47 -12.7 °C -13 °C 34510.1 hPa Calm   23.3 km/h 96 % 38.1 mm
20:52 -12.7 °C -13 °C 34510.1 hPa South 10.3 km/h 15.6 km/h 96 % 38.1 mm
21:04 -12.7 °C -13 °C 34510.1 hPa WSW 2.6 km/h 18.2 km/h 96 % 45.72 mm
21:12 -12.7 °C -13 °C 34496.6 hPa NW 2.6 km/h 18.2 km/h 96 % 45.72 mm
21:22 -12.7 °C -13.2 °C 34496.6 hPa East 2.6 km/h 15.6 km/h 95 % 45.72 mm
21:27 -12.7 °C -13.2 °C 34510.1 hPa SW 2.6 km/h 15.6 km/h 95 % 45.72 mm
21:37 -12.8 °C -13.3 °C 34510.1 hPa Calm   10.3 km/h 95 % 38.1 mm
21:47 -12.8 °C -13.3 °C 34510.1 hPa Calm   12.9 km/h 95 % 45.72 mm
21:52 -12.9 °C -13.3 °C 34510.1 hPa ENE 7.7 km/h 15.6 km/h 95 % 45.72 mm
22:02 -12.9 °C -13.3 °C 34510.1 hPa SW 7.7 km/h 15.6 km/h 95 % 38.1 mm
22:07 -12.9 °C -13.3 °C 34496.6 hPa SW 7.7 km/h 12.9 km/h 95 % 38.1 mm
22:17 -12.9 °C -13.4 °C 34496.6 hPa SW 2.6 km/h 25.9 km/h 94 % 38.1 mm
22:22 -12.9 °C -13.4 °C 34496.6 hPa ESE 18.2 km/h 25.9 km/h 94 % 38.1 mm
22:32 -13 °C -13.5 °C 34496.6 hPa SW 5.1 km/h 20.8 km/h 94 % 33.02 mm
22:42 -13.1 °C -13.6 °C 34496.6 hPa Calm   20.8 km/h 94 % 38.1 mm
22:49 -13.1 °C -13.6 °C 34496.6 hPa Calm   20.8 km/h 94 % 38.1 mm
22:57 -13.1 °C -13.6 °C 34496.6 hPa Calm   12.9 km/h 95 % 33.02 mm
23:02 -13.2 °C -13.6 °C 34486.4 hPa Calm   7.7 km/h 95 % 33.02 mm
23:12 -13.2 °C -13.5 °C 34486.4 hPa WSW 2.6 km/h 5.1 km/h 96 % 33.02 mm
23:17 -13.2 °C -13.5 °C 34486.4 hPa SW 5.1 km/h 5.1 km/h 96 % 33.02 mm
23:22 -13.1 °C -13.4 °C 34486.4 hPa SSW 5.1 km/h 7.7 km/h 96 % 33.02 mm
23:32 -13.1 °C -13.4 °C 34486.4 hPa Calm   10.3 km/h 96 % 25.4 mm
23:42 -13.1 °C -13.6 °C 34486.4 hPa Calm   10.3 km/h 95 % 25.4 mm
23:47 -13.1 °C -13.6 °C 34476.3 hPa Calm   7.7 km/h 95 % 25.4 mm
Meteo18
Compliments of Weather Underground - 4 mb

Script developed by  Jim McMurry - jmcmurry@mwt.net Adapted for the template by  Wim van der Kuil - Leuven-Template.eu

You find our weather info also at:

European Weather Network

Weather Underground

Equipment we use:

Weather-station
Davis Vue

Weather-program
Meteobridge

Weather-server
Raspberry PI 2 B+

Provider
1 and 1

Davis Vue

Meteobridge

Raspberry PI 2 B+

1 and 1